• Join FlightAware (Why Join?)
  • Login
  • US Flag 
12:36AM EST


 

Airport Tracker/Info


-or-


 

Live Flight TrackerFlight Track Log ✈ EJM685 ✈ 16-Jul-2013 ✈ KDVK - KTTN

Flight Track Log - Related Links

Times and Time Zones

All times are in EDT time to prevent confusion due to time zone crossing. See the EJM685 flight status page for this flight to view local times or setup timezone preferences in your user account.

Time Position Orientation Groundspeed Altitude Reporting Facility
EDT Latitude Longitude Course Direction KTS MPH feet Rate Location/Type
01:19PM 37.6078 -84.6831 28° Northeast 215 247 4,500  Level Indianapolis Center
01:20PM 37.6794 -84.6914 355° North 238 274 8,200 2,661 Climbing Indianapolis Center
01:21PM 37.7636 -84.6919 360° North 282 325 10,000 871 Climbing Indianapolis Center
01:22PM 37.8361 -84.6214 38° Northeast 339 390 10,000 726 Level Indianapolis Center
01:23PM 37.8185 -84.2025 53° Northeast  Level FlightAware Approximate
01:23PM 37.8767 -84.5094 65° Northeast 347 399 11,500  Level Indianapolis Center
01:24PM 37.9194 -84.3936 65° Northeast 357 411 13,800 2,855 Climbing Indianapolis Center
01:25PM 37.9689 -84.2567 65° Northeast 364 419 17,400 3,097 Climbing Indianapolis Center
01:26PM 38.0142 -84.1311 65° Northeast 384 442 20,200 2,613 Climbing Indianapolis Center
01:27PM 38.0614 -84.0014 65° Northeast 401 461 22,800 2,439 Climbing Indianapolis Center
01:28PM 38.1089 -83.8714 65° Northeast 404 465 25,200 2,390 Climbing Indianapolis Center
01:29PM 38.1611 -83.7256 65° Northeast 442 509 27,700 2,468 Climbing Indianapolis Center
01:30PM 38.2125 -83.5819 65° Northeast 445 512 30,300 2,565 Climbing Indianapolis Center
01:31PM 38.2650 -83.4322 66° East 459 528 33,000 2,903 Climbing Indianapolis Center
01:32PM 38.3267 -83.2597 65° Northeast 457 526 36,300 2,565 Climbing Indianapolis Center
01:33PM 38.3775 -83.1147 66° East 451 519 38,300 1,951 Climbing Indianapolis Center
01:34PM 38.4308 -82.9658 65° Northeast 457 526 40,300 1,756 Climbing Indianapolis Center
01:35PM 38.5119 -82.8458 49° Northeast 448 516 41,900 1,452 Climbing Indianapolis Center
01:36PM 38.6008 -82.7314 45° Northeast 452 520 43,300 1,161 Climbing Indianapolis Center
01:37PM 38.6892 -82.6153 46° Northeast 457 526 44,300 823 Climbing Indianapolis Center
01:38PM 38.7781 -82.4978 46° Northeast 458 527 45,000 339 Climbing Indianapolis Center
01:39PM 38.8675 -82.3800 46° Northeast 458 527 45,000  Level Indianapolis Center
01:40PM 38.9739 -82.2397 46° Northeast 455 524 45,000  Level Indianapolis Center
01:41PM 39.0631 -82.1200 46° Northeast 460 529 45,000  Level Indianapolis Center
01:42PM 39.1519 -82.0006 46° Northeast 459 528 45,000  Level Indianapolis Center
01:43PM 39.2394 -81.8786 47° Northeast 461 531 45,000  Level Indianapolis Center
01:44PM 39.2964 -81.7297 64° Northeast 458 527 45,000  Level Indianapolis Center
01:45PM 39.3500 -81.5817 65° Northeast 454 522 45,000  Level Indianapolis Center
01:46PM 39.4047 -81.4336 64° Northeast 455 524 45,000  Level Indianapolis Center
01:47PM 39.4592 -81.2864 64° Northeast 452 520 45,000  Level Indianapolis Center
01:48PM 39.5125 -81.1383 65° Northeast 453 521 45,000  Level Indianapolis Center
01:50PM 39.5761 -80.9617 65° Northeast 451 519 45,000  Level Indianapolis Center
01:51PM 39.6292 -80.8153 65° Northeast 448 516 45,000  Level Indianapolis Center
01:52PM 39.6817 -80.6697 65° Northeast 445 512 45,000  Level Indianapolis Center
01:52PM 39.7169 -80.5750 64° Northeast 445 512 45,000  Level Cleveland Center
01:53PM 39.7689 -80.4292 65° Northeast 445 512 45,000  Level Cleveland Center
01:54PM 39.8208 -80.2831 65° Northeast 445 512 45,000  Level Cleveland Center
01:55PM 39.8703 -80.1367 66° East 440 506 45,000  Level Cleveland Center
01:56PM 39.9219 -79.9931 65° Northeast 440 506 45,000  Level Cleveland Center
01:57PM 39.9750 -79.8436 65° Northeast 440 506 45,000  Level Cleveland Center
01:58PM 40.0219 -79.6967 67° East 440 506 45,000 -700 Level Cleveland Center
01:59PM 40.0811 -79.5331 65° Northeast 440 506 43,600 -1,650 Descending Cleveland Center
02:00PM 40.1317 -79.3828 66° East 440 506 41,700 -1,900 Descending Cleveland Center
02:01PM 40.1803 -79.2381 66° East 440 506 39,800 -1,700 Descending Cleveland Center
02:02PM 40.2303 -79.0847 67° East 440 506 38,300 -1,850 Descending Cleveland Center
02:03PM 40.2825 -78.9339 66° East 445 512 36,100 -2,150 Descending Cleveland Center
02:04PM 40.3175 -78.7694 74° East 450 518 34,000 -1,050 Descending Cleveland Center
02:05PM 40.3167 -78.5953 90° East 455 524 34,000  Level Cleveland Center
02:06PM 40.3139 -78.4375 91° East 467 537 34,000 -1,634 Level Cleveland Center
02:09PM 40.3114 -78.0311 90° East 465 535 28,500 -2,220 Descending New York Center
02:10PM 40.3106 -77.8731 90° East 452 520 26,600 -1,438 Descending New York Center
02:11PM 40.3097 -77.7122 90° East 440 506 25,600 -738 Descending New York Center
02:12PM 40.3081 -77.5597 91° East 435 501 25,100 -1,068 Descending New York Center
02:13PM 40.3083 -77.4100 90° East 423 487 23,500 -1,831 Descending New York Center
02:14PM 40.3019 -77.2622 93° East 417 480 21,500 -2,017 Descending New York Center
02:15PM 40.3011 -77.1206 90° East 401 461 19,500 -1,736 Descending New York Center
02:16PM 40.2833 -76.9856 100° East 386 444 18,000 -992 Descending New York Center
02:17PM 40.2508 -76.8522 108° East 379 436 17,500 -992 Descending New York Center
02:18PM 40.2219 -76.7217 106° East 379 436 16,000 -1,613 Descending New York Center
02:19PM 40.1942 -76.6081 108° East 374 430 14,300 -1,795 Descending New York Center
02:20PM 40.1650 -76.4833 107° East 369 425 12,500 -1,650 Descending New York Center
02:21PM 40.1353 -76.3586 107° East 350 403 11,000 -732 Descending New York Center
02:22PM 40.1175 -76.2514 102° East 317 365 11,000  Level New York Center
02:23PM 40.1100 -76.1419 95° East 302 348 11,000  Level New York Center
02:24PM 40.1019 -76.0439 96° East 296 341 11,000 -700 Level New York Center
02:25PM 40.0947 -75.9239 94° East 296 341 9,600 -1,450 Descending New York Center
02:26PM 40.0883 -75.8339 95° East 289 333 8,100 -1,537 Descending New York Center
02:27PM 40.0867 -75.7250 91° East 282 325 6,500 -1,400 Descending New York Center
02:28PM 40.1050 -75.6342 75° East 268 308 5,300 -744 Descending New York Center
02:29PM 40.1233 -75.5406 76° East 263 303 5,000 -197 Descending New York Center
02:30PM 40.1458 -75.4469 73° East 258 297 4,900 -655 Descending New York Center
02:31PM 40.1619 -75.3556 77° East 258 297 3,700 -1,000 Descending New York Center
02:32PM 40.1803 -75.2617 76° East 258 297 2,900 -353 Descending New York Center
02:33PM 40.1881 -75.1672 84° East 258 297 3,000 50 Climbing New York Center
02:34PM 40.1931 -75.0831 86° East 241 277 3,000 -248 Level New York Center
02:35PM 40.1997 -75.0183 82° East 200 230 2,500 -545 Descending New York Center
02:36PM 40.2019 -74.9533 87° East 176 203 1,900 -347 Descending New York Center
02:37PM 40.2017 -74.8989 90° East 176 203 1,800 -250 Descending New York Center
02:38PM 40.2286 -74.8489 55° Northeast 176 203 1,400 -400 Descending New York Center
02:40PM 40.2667 -74.8000 75° East  Level FlightAware Approximate
02:47PM 40.2767 -74.8135 75° East  Level Estimated